Starlink 5464

operational
NORAD ID: 54758 Int'l Des: 2022-175 Owner: SPXS Country: US Constellation: starlink
LEOCIRCULAR

About Starlink 5464

Description loading...

Live Position

Loading 3D Globe...

Upcoming Passes

Altitude History

Altitude vs Time

uPlot chart will show altitude changes over time

Two-Line Element Set

1 54758U 22175A 26066.15342536 .00000691 00000-0 61517-4 0 9995
2 54758 53.2180 50.6980 0001303 83.1403 276.9738 15.08839106179600
Epoch: Mar 7, 2026 • Age: 16 hours

Current Status

Altitude 539.8 km
Velocity 7.60 km/s
Sub-Earth Point 17.98°N, 176.59°E
Launch Date Dec 17, 2022
Age 3.2 years
Type internet

Technical Details

Classification Payload
Mass 305.00 kg
Dry Mass 290.00 kg
Total Mass 305.00 kg
Length 0.20 m
Diameter 2.80 m
Span 9.00 m
Shape Box + pan
Manufacturer SPXS
Bus Type Starlink
Phase Status In Orbit
Owner/State SPXS/US

Large Constellations

Loading constellations...